Погода в Тунисе

Тунис     36°49′10″N   10°11′19″E
темп.,
°C
ветер,
м/с
пор.,
м/с
влажн.,
%
обл.,
%
осадки,
мм/ч
давл.,
гПа
погр.,
м
5 марта, пт
пт501:00+12ююв238737 0.0 1019174
04:00+11ююв248965 0.0 1018232
07:00+11юв119082 0.0 101780
10:00+15ю237699 0.0 1017545
13:00+17ююв446299 0.0 1016938
16:00+18юв335746 0.0 1015879
19:00+14юв337423 0.0 1016151
22:00+12ю23800 0.0 101990
6 марта, сб
сб601:00+12ююз11810 0.0 101954
04:00+11юз11820 0.0 101937
07:00+11юз11820 0.0 102035
10:00+16вюв12610 0.0 1022395
13:00+20в23480 0.0 10211070
16:00+20юв33530 0.0 10211061
19:00+15юв45732 0.0 1021220
22:00+13юв3482100 0.0 1023174
7 марта, вс
вс701:00+12ююв238863 0.0 1023104
04:00+12ююв22913 0.0 102291
07:00+11ююв23942 0.0 1022130
10:00+16ююв587051 0.0 1021631
13:00+19ююв685559 0.0 1020863
16:00+18ююв585896 0.0 1017745
19:00+14юв467898 0.0 1017316
22:00+13юв498799 0.0 1017501
8 марта, пн
пн801:00+13юв3788100 0.0 1016480
04:00+14юв477897 0.0 1014771
07:00+14юв377799 0.1 1014731
10:00+16юв467183 0.0 1014821
13:00+18юв456290 0.1 1013998
16:00+17вюв3362100 0.1 1011847
19:00+15юв3475100 0.1 1012245
22:00+14юз1179100 0.1 1013103
9 марта, вт
вт901:00+13юз2285100 0.2 1013145
04:00+13зсз2486100 0.0 1012283
07:00+12юз358699 0.1 1013242
10:00+16зюз586982 0.0 1014799
13:00+17сз796188 2.4 10141192
16:00+17сз7957100 0.2 10141321
19:00+13зсз5971100 0.2 1016836
22:00+11з6107975 0.0 1018645